| time (UTC) | temp C | wind direction | speed KPH | gust KPH | rain 1hr cm | rain 24hr cm | rain mn cm | humidity % | barometer mb |
| 20260905184558 | 10 | 138 | 0.0 | 0.0 | 0.00 | 0.00 | 0.00 | 90 | 1017.4 |
| 20260905183058 | 11 | 138 | 0.0 | 1.6 | 0.00 | 0.00 | 0.00 | 89 | 1017.0 |
| 20260905181557 | 11 | 139 | 0.0 | 1.6 | 0.00 | 0.00 | 0.00 | 89 | 1017.0 |
| 20260905180103 | 12 | 139 | 0.0 | 3.2 | 0.00 | 0.00 | 0.00 | 88 | 1016.9 |
| 20260905174556 | 12 | 141 | 0.0 | 3.2 | 0.00 | 0.00 | 0.00 | 88 | 1016.9 |
| 20260905173103 | 11 | 278 | 0.0 | 4.8 | 0.00 | 0.00 | 0.00 | 88 | 1016.9 |
| 20260905171555 | 11 | 101 | 0.0 | 3.2 | 0.00 | 0.00 | 0.00 | 87 | 1016.7 |
| 20260905170053 | 12 | 168 | 0.0 | 1.6 | 0.00 | 0.00 | 0.00 | 86 | 1016.8 |
| 20260905164553 | 12 | 168 | 0.0 | 4.8 | 0.00 | 0.00 | 0.00 | 85 | 1016.9 |
| 20260905163051 | 12 | 155 | 1.6 | 11.3 | 0.00 | 0.00 | 0.00 | 88 | 1016.9 |
| 20260905161551 | 11 | 103 | 0.0 | 3.2 | 0.00 | 0.00 | 0.00 | 90 | 1016.8 |
| 20260905160051 | 11 | 148 | 0.0 | 1.6 | 0.00 | 0.00 | 0.00 | 89 | 1017.0 |
| 20260905154556 | 11 | 150 | 0.0 | 1.6 | 0.00 | 0.00 | 0.00 | 89 | 1017.4 |
| 20260905153049 | 10 | 140 | 0.0 | 3.2 | 0.00 | 0.00 | 0.00 | 90 | 1017.0 |
| 20260905151549 | 10 | 103 | 1.6 | 4.8 | 0.00 | 0.00 | 0.00 | 89 | 1016.6 |
| 20260905150047 | 10 | 130 | 0.0 | 0.0 | 0.00 | 0.00 | 0.00 | 89 | 1017.1 |
| 20260905144544 | 10 | 129 | 0.0 | 1.6 | 0.00 | 0.00 | 0.00 | 88 | 1017.1 |
| 20260905143048 | 10 | 129 | 0.0 | 1.6 | 0.00 | 0.00 | 0.00 | 87 | 1017.3 |
| 20260905141536 | 11 | 129 | 0.0 | 3.2 | 0.00 | 0.00 | 0.00 | 85 | 1017.7 |
| 20260905140033 | 11 | 129 | 0.0 | 1.6 | 0.00 | 0.00 | 0.00 | 84 | 1017.9 |
| 20260905134535 | 12 | 122 | 0.0 | 6.4 | 0.00 | 0.00 | 0.00 | 84 | 1018.0 |
| 20260905133029 | 12 | 160 | 3.2 | 8.0 | 0.00 | 0.00 | 0.00 | 83 | 1017.9 |
| 20260905131528 | 12 | 166 | 1.6 | 9.7 | 0.00 | 0.00 | 0.00 | 82 | 1018.1 |
| 20260905130024 | 12 | 158 | 1.6 | 4.8 | 0.00 | 0.00 | 0.00 | 82 | 1018.2 |
| 20260905124534 | 12 | 187 | 0.0 | 4.8 | 0.00 | 0.00 | 0.00 | 81 | 1018.3 |
| 20260905123023 | 12 | 328 | 3.2 | 9.7 | 0.00 | 0.00 | 0.00 | 81 | 1018.1 |
| 20260905121521 | 12 | 173 | 1.6 | 9.7 | 0.00 | 0.00 | 0.00 | 80 | 1018.3 |
| 20260905120019 | 12 | 124 | 1.6 | 6.4 | 0.00 | 0.00 | 0.00 | 82 | 1018.4 |
| 20260905114519 | 12 | 318 | 0.0 | 6.4 | 0.00 | 0.00 | 0.00 | 83 | 1018.5 |
| 20260905113019 | 12 | 165 | 0.0 | 8.0 | 0.00 | 0.00 | 0.00 | 82 | 1018.4 |
| 20260905111520 | 11 | 166 | 1.6 | 4.8 | 0.00 | 0.00 | 0.00 | 83 | 1018.6 |
| 20260905110017 | 11 | 173 | 0.0 | 12.9 | 0.00 | 0.00 | 0.00 | 83 | 1018.5 |
| 20260905104516 | 11 | 121 | 0.0 | 1.6 | 0.00 | 0.00 | 0.00 | 82 | 1018.4 |
| 20260905103016 | 11 | 120 | 0.0 | 3.2 | 0.00 | 0.00 | 0.00 | 81 | 1018.5 |
| 20260905101523 | 11 | 159 | 0.0 | 3.2 | 0.00 | 0.00 | 0.00 | 80 | 1018.6 |
| 20260905100015 | 12 | 153 | 1.6 | 6.4 | 0.00 | 0.00 | 0.00 | 79 | 1018.4 |
| 20260905094514 | 12 | 190 | 1.6 | 9.7 | 0.00 | 0.00 | 0.00 | 79 | 1018.4 |
| 20260905093014 | 12 | 198 | 1.6 | 12.9 | 0.00 | 0.00 | 0.00 | 79 | 1018.5 |
| 20260905091515 | 12 | 276 | 1.6 | 9.7 | 0.00 | 0.00 | 0.00 | 79 | 1018.7 |
| 20260905090015 | 12 | 228 | 1.6 | 8.0 | 0.00 | 0.00 | 0.00 | 78 | 1018.6 |
| 20260905084511 | 12 | 139 | 0.0 | 1.6 | 0.00 | 0.00 | 0.00 | 75 | 1018.8 |
| 20260905083018 | 12 | 160 | 0.0 | 3.2 | 0.00 | 0.00 | 0.00 | 73 | 1018.5 |
| 20260905081510 | 12 | 187 | 0.0 | 6.4 | 0.00 | 0.00 | 0.00 | 72 | 1018.3 |
| 20260905080011 | 12 | 180 | 1.6 | 8.0 | 0.00 | 0.00 | 0.00 | 73 | 1018.0 |
| 20260905074513 | 13 | 159 | 1.6 | 8.0 | 0.00 | 0.00 | 0.00 | 73 | 1017.7 |
| 20260905073009 | 13 | 204 | 1.6 | 8.0 | 0.00 | 0.00 | 0.00 | 73 | 1017.4 |
| 20260905071516 | 13 | 164 | 1.6 | 6.4 | 0.00 | 0.00 | 0.00 | 73 | 1017.2 |
| 20260905070008 | 13 | 158 | 0.0 | 4.8 | 0.00 | 0.00 | 0.00 | 72 | 1017.3 |
| 20260905064507 | 13 | 250 | 1.6 | 4.8 | 0.00 | 0.00 | 0.00 | 71 | 1017.3 |
| 20260905063007 | 14 | 142 | 1.6 | 8.0 | 0.00 | 0.00 | 0.00 | 70 | 1017.5 |
| 20260905061508 | 14 | 259 | 3.2 | 11.3 | 0.00 | 0.00 | 0.00 | 70 | 1017.4 |
| 20260905060005 | 15 | 322 | 4.8 | 11.3 | 0.00 | 0.00 | 0.00 | 69 | 1017.2 |
| 20260905054506 | 15 | 292 | 4.8 | 17.7 | 0.00 | 0.00 | 0.00 | 68 | 1017.2 |
| 20260905053004 | 15 | 215 | 3.2 | 9.7 | 0.00 | 0.00 | 0.00 | 64 | 1017.1 |
| 20260905051503 | 16 | 235 | 4.8 | 12.9 | 0.00 | 0.00 | 0.00 | 61 | 1016.9 |
| 20260905050002 | 17 | 177 | 1.6 | 9.7 | 0.00 | 0.00 | 0.00 | 62 | 1016.8 |
| 20260905044502 | 17 | 158 | 4.8 | 14.5 | 0.00 | 0.00 | 0.00 | 61 | 1016.9 |
| 20260905043100 | 17 | 283 | 6.4 | 16.1 | 0.00 | 0.00 | 0.00 | 62 | 1017.0 |
| 20260905041601 | 17 | 181 | 4.8 | 17.7 | 0.00 | 0.00 | 0.00 | 62 | 1016.9 |
| 20260905040059 | 17 | 319 | 9.7 | 24.1 | 0.00 | 0.00 | 0.00 | 64 | 1016.8 |
| 20260905034558 | 17 | 266 | 6.4 | 22.5 | 0.00 | 0.00 | 0.00 | 60 | 1016.7 |
| 20260905033057 | 18 | 248 | 8.0 | 19.3 | 0.00 | 0.00 | 0.00 | 59 | 1016.7 |
| 20260905031605 | 17 | 252 | 4.8 | 14.5 | 0.00 | 0.00 | 0.00 | 63 | 1017.0 |
| 20260905030100 | 17 | 264 | 6.4 | 16.1 | 0.00 | 0.00 | 0.00 | 63 | 1017.0 |
| 20260905024600 | 17 | 179 | 3.2 | 11.3 | 0.00 | 0.08 | 0.00 | 64 | 1016.8 |
| 20260905023053 | 17 | 293 | 6.4 | 14.5 | 0.00 | 0.08 | 0.00 | 63 | 1017.2 |
| 20260905021551 | 17 | 194 | 4.8 | 14.5 | 0.00 | 0.08 | 0.00 | 61 | 1017.2 |
| 20260905020049 | 17 | 249 | 4.8 | 17.7 | 0.00 | 0.08 | 0.00 | 62 | 1017.3 |
| 20260905014550 | 17 | 228 | 6.4 | 19.3 | 0.00 | 0.08 | 0.00 | 60 | 1017.6 |
| 20260905013055 | 17 | 172 | 4.8 | 11.3 | 0.00 | 0.08 | 0.00 | 60 | 1017.6 |
| 20260905011647 | 17 | 210 | 4.8 | 11.3 | 0.00 | 0.08 | 0.00 | 59 | 1017.7 |
| 20260905010047 | 18 | 207 | 4.8 | 14.5 | 0.00 | 0.08 | 0.00 | 59 | 1017.9 |
| 20260905004552 | 18 | 239 | 4.8 | 16.1 | 0.00 | 0.08 | 0.00 | 59 | 1017.9 |
| 20260905003047 | 18 | 240 | 4.8 | 16.1 | 0.00 | 0.08 | 0.00 | 59 | 1018.1 |
| 20260905001543 | 18 | 158 | 4.8 | 8.0 | 0.00 | 0.08 | 0.00 | 60 | 1018.3 |
| 20260905000041 | 17 | 266 | 8.0 | 24.1 | 0.00 | 0.08 | 0.00 | 62 | 1018.2 |
| 20260904234540 | 17 | 229 | 6.4 | 17.7 | 0.00 | 0.08 | 0.00 | 59 | 1018.3 |
| 20260904233039 | 17 | 160 | 1.6 | 11.3 | 0.00 | 0.08 | 0.00 | 63 | 1018.5 |
| 20260904231539 | 17 | 181 | 3.2 | 9.7 | 0.00 | 0.08 | 0.00 | 62 | 1018.6 |
| 20260904230057 | 17 | 228 | 3.2 | 14.5 | 0.00 | 0.08 | 0.00 | 66 | 1018.6 |
| 20260904224533 | 16 | 278 | 4.8 | 12.9 | 0.00 | 0.08 | 0.00 | 66 | 1018.7 |
| 20260904223032 | 16 | 222 | 1.6 | 6.4 | 0.00 | 0.08 | 0.00 | 66 | 1018.7 |
| 20260904221529 | 16 | 181 | 1.6 | 6.4 | 0.00 | 0.08 | 0.00 | 68 | 1018.6 |
| 20260904220028 | 16 | 160 | 1.6 | 9.7 | 0.00 | 0.08 | 0.00 | 70 | 1018.5 |
| 20260904214523 | 15 | 150 | 3.2 | 14.5 | 0.00 | 0.08 | 0.00 | 71 | 1018.5 |
| 20260904213020 | 15 | 156 | 3.2 | 9.7 | 0.00 | 0.08 | 0.00 | 74 | 1018.4 |
| 20260904211516 | 15 | 163 | 4.8 | 14.5 | 0.00 | 0.08 | 0.00 | 74 | 1018.3 |
| 20260904210013 | 14 | 190 | 6.4 | 20.9 | 0.00 | 0.08 | 0.00 | 75 | 1018.1 |
| 20260904204511 | 13 | 163 | 4.8 | 16.1 | 0.00 | 0.08 | 0.00 | 77 | 1018.0 |
| 20260904203007 | 13 | 224 | 9.7 | 20.9 | 0.00 | 0.08 | 0.00 | 77 | 1017.8 |
| 20260904201502 | 13 | 198 | 8.0 | 20.9 | 0.00 | 0.08 | 0.00 | 79 | 1017.8 |
| 20260904200004 | 12 | 289 | 6.4 | 14.5 | 0.00 | 0.08 | 0.00 | 80 | 1017.8 |
| 20260904194503 | 12 | 163 | 4.8 | 16.1 | 0.00 | 0.08 | 0.00 | 81 | 1017.9 |
| 20260904193100 | 12 | 230 | 4.8 | 14.5 | 0.00 | 0.08 | 0.00 | 82 | 1017.8 |
| 20260904191558 | 11 | 197 | 6.4 | 14.5 | 0.00 | 0.08 | 0.00 | 83 | 1017.6 |
| 20260904190058 | 11 | 213 | 4.8 | 12.9 | 0.00 | 0.08 | 0.00 | 83 | 1017.5 |